Content
SEND FEEDBACK

Daily
Averages
Monthly
Summary
United States of America

BEVERLY, WEST VIRGINIA


Home > North America > United States > West Virginia
Elevation: 1998 feet     Latitude: 38 53N     Longitude: 079 51W

WEATHER
 
SELECT A DAY
Number of Records: 252,809;   Date Range: 1/1/95 - 9/29/14
 
SHARE

PRINT THIS DATA

[ ← Previous Day ]
WEATHER ALMANAC - FEBRUARY 13, 2013
[ Next Day → ]
[ °C ]   °F
Weather ElementAverageHighLow
Temperature32.9 °F39.9 °F (11:51 am)24.1 °F (1:51 am)
Dewpoint28.8 °F32 °F (2:09 pm)19.9 °F (1:51 am)
Humidity85.3 %93 % (2:09 pm)53 % (11:51 am)
Barometer29.72 in29.95 in (1:51 am)29.60 in (3:09 pm)
Wind Speed3.6 mph12.7 mph (9:51 pm)
Wind Gust18.4 mph (12:16 pm)
Weather ElementAverage
Visibility3.8 mi
Wind DirectionSSE (150.9 °)

Weather ElementTotal
Precipitation0.88 in
Heating Degree Days33 (Base 65)
Averaged from 64 records on February 13, 2013
WEATHER CONDITIONS BREAKOUT
WIND DIRECTION BREAKOUT
WEATHER BY HOUR - FEBRUARY 13, 2013
[ °C ]   °F
Local TimeTemperatureDewpointHumidityBarometerVisibilityWind DirectionWind SpeedGust SpeedPrecipitationEventsConditions
1:51 AM24.1 °F19.9 °F84 %29.95 in10.0 miCalmClear
2:51 AM26.1 °F21.9 °F84 %29.91 in10.0 miCalmClear
3:51 AM26.1 °F21.9 °F84 %29.90 in10.0 miCalmClear
4:51 AM27.0 °F23.0 °F85 %29.89 in9.0 miCalmOvercast
5:51 AM28.0 °F24.1 °F85 %29.87 in9.0 miCalmOvercast
6:51 AM27.0 °F23.0 °F85 %29.85 in9.0 miCalmMostly Cloudy
7:51 AM30.0 °F24.1 °F79 %29.85 in8.0 miCalmOvercast
8:51 AM30.9 °F25.0 °F79 %29.81 in10.0 miWest (260°)3.5 mphOvercast
9:51 AM34.0 °F23.0 °F64 %29.78 in10.0 miCalmOvercast
10:51 AM35.1 °F24.1 °F64 %29.76 in10.0 miWSW (240°)3.5 mphOvercast
11:51 AM39.9 °F24.1 °F53 %29.76 in10.0 miSouth (180°)10.4 mphOvercast
12:16 PM37.4 °F28.4 °F70 %29.70 in3.0 miSSE (160°)10.4 mph18.4 mph0.00 inSnowLight Snow
12:23 PM37.4 °F30.2 °F75 %29.69 in2.5 miSSE (150°)8.1 mph18.4 mph0.00 inSnowLight Snow
12:31 PM37.4 °F30.2 °F75 %29.68 in4.0 miSSE (150°)5.8 mph0.00 inSnowLight Snow
12:51 PM37.0 °F30.9 °F79 %29.73 in9.0 miCalm0.00 inOvercast
1:12 PM35.6 °F30.2 °F81 %29.67 in1.5 miSW (220°)5.8 mph0.01 inSnowLight Snow
1:16 PM33.8 °F30.2 °F87 %29.67 in0.8 miSSW (210°)4.6 mph0.02 inSnowLight Snow
1:40 PM33.8 °F30.2 °F87 %29.65 in0.2 miCalm0.07 inFog-SnowHeavy Snow
1:51 PM33.1 °F30.0 °F89 %29.72 in0.2 miCalm0.10 inFog-SnowHeavy Snow
1:58 PM33.8 °F30.2 °F87 %29.64 in0.5 miCalm0.02 inFog-SnowLight Snow
2:09 PM33.8 °F32.0 °F93 %29.63 in1.2 miCalm0.03 inSnowLight Snow
2:16 PM33.8 °F30.2 °F87 %29.63 in1.2 miCalm0.03 inSnowLight Snow
2:26 PM33.8 °F30.2 °F87 %29.63 in1.0 miCalm0.03 inSnowLight Snow
2:51 PM33.1 °F30.9 °F92 %29.68 in1.0 miCalm0.05 inSnowLight Snow
3:03 PM33.8 °F30.2 °F87 %29.61 in0.5 miCalm0.01 inFog-SnowSnow
3:09 PM33.8 °F30.2 °F87 %29.60 in0.5 miCalm0.02 inFog-SnowSnow
3:15 PM33.8 °F30.2 °F87 %29.60 in1.0 miCalm0.02 inSnowLight Snow
3:24 PM33.8 °F30.2 °F87 %29.60 in2.0 miCalm0.02 inSnowLight Snow
3:37 PM33.8 °F30.2 °F87 %29.60 in4.0 miNNW (340°)3.5 mph0.02 inSnowLight Snow
3:51 PM33.1 °F30.9 °F92 %29.68 in5.0 miNNW (330°)6.9 mph0.02 inSnowLight Snow
4:05 PM33.8 °F30.2 °F87 %29.62 in6.0 miNNW (330°)4.6 mph0.00 inOvercast
4:17 PM33.8 °F30.2 °F87 %29.61 in2.5 miCalm0.00 inSnowLight Snow
4:21 PM33.8 °F30.2 °F87 %29.62 in1.8 miCalm0.00 inSnowLight Snow
4:34 PM33.8 °F32.0 °F93 %29.62 in0.8 miCalm0.01 inSnowLight Snow
4:43 PM33.8 °F30.2 °F87 %29.63 in0.8 miCalm0.02 inSnowLight Snow
4:51 PM33.1 °F30.9 °F92 %29.70 in1.0 miCalm0.02 inSnowLight Snow
5:05 PM33.8 °F32.0 °F93 %29.63 in0.8 miCalm0.01 inSnowLight Snow
5:13 PM33.8 °F30.2 °F87 %29.63 in0.8 miCalm0.02 inSnowLight Snow
5:24 PM33.8 °F30.2 °F87 %29.63 in0.8 miCalm0.03 inSnowLight Snow
5:33 PM33.8 °F30.2 °F87 %29.64 in1.0 miCalm0.03 inSnowLight Snow
5:44 PM33.8 °F30.2 °F87 %29.65 in0.8 miWNW (290°)4.6 mph0.03 inSnowLight Snow
5:51 PM33.1 °F30.0 °F89 %29.73 in0.5 miNW (310°)10.4 mph0.04 inFog-SnowSnow
6:01 PM33.8 °F30.2 °F87 %29.67 in1.0 miWNW (300°)9.2 mph0.01 inSnowLight Snow
6:13 PM33.8 °F30.2 °F87 %29.68 in1.5 miVariable6.9 mph0.02 inSnowLight Snow
6:24 PM33.8 °F30.2 °F87 %29.68 in2.5 miNNW (330°)8.1 mph0.02 inSnowLight Snow
6:31 PM33.8 °F30.2 °F87 %29.69 in2.0 miNW (320°)5.8 mph0.02 inSnowLight Snow
6:51 PM33.1 °F30.0 °F89 %29.77 in2.5 miNW (310°)9.2 mph0.02 inSnowLight Snow
7:06 PM33.8 °F30.2 °F87 %29.71 in4.0 miNW (320°)5.8 mph0.00 inSnowLight Snow
7:19 PM33.8 °F30.2 °F87 %29.71 in2.5 miNW (320°)5.8 mph0.00 inSnowLight Snow
7:27 PM33.8 °F30.2 °F87 %29.72 in2.0 miNW (320°)5.8 mph0.01 inSnowLight Snow
7:31 PM33.8 °F30.2 °F87 %29.72 in3.0 miNW (310°)5.8 mph0.01 inSnowLight Snow
7:46 PM32.0 °F30.2 °F93 %29.73 in2.0 miWNW (300°)10.4 mph0.01 inSnowLight Snow
7:51 PM32.0 °F30.0 °F92 %29.80 in1.5 miNW (310°)6.9 mph16.1 mph0.01 inSnowLight Snow
8:13 PM32.0 °F30.2 °F93 %29.74 in2.5 miWNW (300°)3.5 mph0.01 inSnowLight Snow
8:38 PM32.0 °F30.2 °F93 %29.74 in3.0 miNW (320°)4.6 mph0.01 inSnowLight Snow
8:44 PM32.0 °F28.4 °F87 %29.75 in5.0 miNNW (330°)4.6 mph0.01 inSnowLight Snow
8:51 PM32.0 °F28.9 °F88 %29.82 in4.0 miNW (310°)4.6 mph0.01 inSnowLight Snow
8:58 PM32.0 °F28.4 °F87 %29.76 in5.0 miNW (310°)5.8 mph0.00 inSnowLight Snow
9:17 PM32.0 °F28.4 °F87 %29.77 in3.0 miNW (310°)6.9 mph0.01 inSnowLight Snow
9:46 PM32.0 °F28.4 °F87 %29.78 in9.0 miNW (310°)8.1 mph0.01 inOvercast
9:51 PM32.0 °F28.0 °F85 %29.85 in8.0 miWNW (300°)12.7 mph0.01 inOvercast
10:28 PM32.0 °F28.4 °F87 %29.80 in4.0 miWest (280°)5.8 mph0.00 inSnowLight Snow
10:51 PM32.0 °F27.0 °F82 %29.86 in3.0 miWNW (300°)5.8 mph0.00 inSnowLight Snow
11:51 PM30.9 °F28.0 °F89 %29.89 in10.0 miWest (280°)8.1 mph0.00 inOvercast
Hourly data recorded from KEKN, located miles away from Beverly, West Virginia







STORIES FROM OUR PARTNERS